DELTA 1 DEB, 10867

Orbit data source: Space-Track

DELTA 1 DEB, 10867 is space debris in SSO originally from a launch on Thu, 29 Jul 1976 UTC launched from the Air Force Western Test Range (AFWTR). Debris objects in space refer to the collection of defunct objects orbiting the Earth. Examples of debris include non-operational satellites, rocket bodies, and fragments generated from explosions, collisions, or faulty payload assembly.

Loading next visibility...
Identifier
10867, 1976-077CV
Orbit
SSO
Country
Flag of USUS
Related business
Manufacturer
Unknown
Mission
Spacecraft
Bus & Motor
Unknown
Mass
Unknown
Launch date (UTC)
1976-07-29 (50 years ago)
Launch vehicle
Unknown
Launch site
Air Force Western Test Range (AFWTR)
Object type
Payload
Rocket body
Debris
Shape & HBR
Unknown shape, 0.1 m
Radar Cross Section
Medium (>0.1 m² and <1 m²)

Expand to show TLE details & history
Last TLE update: 11 hours ago

TLE from 11 hours ago
0 DELTA 1 DEB
1 10867U 76077CV  26255.61763836  .00000552  00000-0  13688-2 0  9999
2 10867 101.8311 269.9385 0415015  77.1533  47.9886 12.98569357328418
Epoch: 2026-09-12T14:49Z
TLE epoch observation values (Epoch: 2026-09-12T14:49:23.954Z)
Latitude
49.80966°
Longitude
-109.75389°
Altitude
1,070.575 km
Speed
7.419 km/s
True Right ascension
06h 56m 52s
True Declination
49° 38' 50"
Sunlit
Object was in daylight at epoch
Visualization orbit readout
Latitude
Unknown
Longitude
Unknown
Altitude
Unknown
Speed
Unknown
Apparent Right ascension
Unknown
Apparent Declination
Unknown
Sunlit
N/A
Visualization observer readout
Local Sidereal Time
18:35:27
Azimuth
Unknown
Elevation
Unknown
Doppler factor
Unknown
Orbital elements
Apogee altitude
1,582.392 km
Perigee altitude
947.973 km
Semi-major axis
7,643.32 km
Eccentricity
0.0415
Inclination
101.8311°
RAAN
269.9385°
Arg. of periapsis
77.1533°
True anomaly
51.64657°
Mean anomaly
47.9886°
Eccentric anomaly
49.80493°
Mean motion
3.24803 °/min
Orbital period
110.84 mins
BSTAR
0.0013688
Loading maneuver chart data...
Computing Atmospheric mass density...
Loading historical data...
Loading historical data...
Loading historical data...
Loading historical data...
Loading historical data...
Loading historical data...
Loading historical data...

Documentation

Showing up to 5 results
|